www.pogodaiklimat.ru
ПОГОДА в Карлсбаде
Время
и дата
02:53 20.07
03:02 20.07
03:53 20.07
04:34 20.07
04:53 20.07
05:29 20.07
05:45 20.07
05:53 20.07
06:10 20.07
06:30 20.07
06:37 20.07
06:49 20.07
06:53 20.07
07:01 20.07
07:22 20.07
07:53 20.07
08:00 20.07
08:53 20.07
09:32 20.07
09:40 20.07
09:53 20.07
10:53 20.07
11:53 20.07
12:53 20.07
13:53 20.07
14:53 20.07
15:53 20.07
16:53 20.07
17:53 20.07
18:53 20.07
19:53 20.07
20:53 20.07
21:53 20.07
22:53 20.07
23:53 20.07
00:15 21.07
00:53 21.07
01:29 21.07
01:53 21.07
02:53 21.07
03:10 21.07
03:53 21.07
04:53 21.07
05:53 21.07
06:53 21.07
07:23 21.07
07:45 21.07
07:53 21.07
Ветер
(напр.,м/с)
Видим. Явления Облачность Т
(С)
Тd
(С)
f
(%)
Тe
(С)
Тes
(С)
Комфортность P
(гПа)
Po
(гПа)
Тmin
(С)
Tmax
(С)
R
(мм)
R24
(мм)
S
(см)
штиль 0 3 км дымка 10/10 60 м +18.3 +17.8 97 +19 +19 1012.4 1000.8
штиль 0 8 км дымка 10/10 60 м +18.3 +17.8 97 +19 +19 1000.5
штиль 0 6 км дымка 10/10 60 м +18.3 +17.2 93 +19 +19 1012.5 1000.8 +18.3 +19.4
штиль 0 3 км дымка 10/10 90 м +18.3 +17.2 93 +19 +19 1000.8
штиль 0 2 км дымка 10/10 60 м +18.3 +17.2 93 +19 +19 1012.7 1000.8
нст 2 1 км дымка 10/10 60 м +18.3 +17.8 97 +19 +19 1001.1
штиль 0 400 м туман ?/? +17.8 +17.8 100 +18 +18 1001.8
ЮВ 2 400 м туман ?/? +18.3 +17.8 97 +19 +19 1013.4 1001.8
штиль 0 1 км дымка 10/10 60 м +18.3 +17.8 97 +19 +19 1001.5
З 2 400 м туман ?/? +17.8 +17.2 96 +18 +18 1001.5
З 2 800 м туман ?/? +17.8 +17.2 96 +18 +18 1001.8
штиль 0 400 м туман ?/? +18.0 +18.0 100 +18 +18 1001.8
штиль 0 400 м туман ?/? +17.8 +17.8 100 +18 +18 1013.7 1001.8
штиль 0 800 м туман ?/? +17.8 +17.8 100 +18 +18 1002.1
ЮЗ 2 2 км дымка 10/10 60 м +17.8 +17.8 100 +18 +18 1002.1
штиль 0 4 км дымка 10/10 60 м +17.8 +17.2 96 +18 +18 1013.8 1002.1
штиль 0 6 км дымка 10/10 60 м +18.3 +17.2 93 +19 +19 1002.1
ЮЗ 3 10 км дымка 10/10 120 м +19.4 +17.2 87 +22 +22 комфорт 1013.9 1002.1
З 2 16 км 8/8 150 м +20.0 +17.2 84 +23 +26 комфорт 1002.1
З 2 16 км 5/5 150 м +21.1 +17.2 78 +25 +31 комфорт 1002.1
нст 3 16 км ясно +21.1 +17.2 78 +25 +36 комфорт 1013.8 1002.1 +17.8 +21.1
З 4 14 км ясно +21.7 +17.2 76 +26 +38 душно 1013.7 1002.1
З 4 13 км ясно +22.2 +17.8 76 +27 +41 душно 1013.3 1001.5
З 2 13 км ясно +22.8 +17.8 73 +28 +49 душно 1012.9 1001.1
З 3 16 км ясно +23.3 +17.8 71 +29 +45 душно 1012.5 1000.8
ЮЗ 4 16 км ясно +22.8 +17.8 73 +28 +39 душно 1012.0 1000.1
З 4 16 км ясно +21.7 +17.2 76 +26 +34 душно 1011.7 999.8 +21.1 +23.9
З 3 16 км ясно +21.7 +17.8 78 +26 +32 душно 1011.3 999.5
нст 2 16 км ясно +21.1 +17.2 78 +25 +28 комфорт 1011.2 999.5
З 2 16 км ясно +20.6 +17.2 81 +25 +25 комфорт 1011.4 999.8
З 3 16 км ясно +19.4 +17.2 87 +22 +22 комфорт 1011.9 1000.1
ЮЗ 2 16 км ясно +19.4 +17.2 87 +22 +22 комфорт 1012.4 1000.5
штиль 0 16 км ясно +19.4 +17.8 90 +21 +21 комфорт 1012.5 1000.8 +18.9 +21.7
штиль 0 16 км ясно +19.4 +17.8 90 +21 +21 комфорт 1012.2 1000.5
штиль 0 14 км 2/2 120 м +19.4 +17.8 90 +21 +21 комфорт 1011.9 1000.1
штиль 0 14 км 8/8 120 м +19.4 +17.8 90 +21 +21 комфорт 1000.1
штиль 0 14 км 10/10 120 м +18.9 +17.8 93 +20 +20 1011.7 1000.1
штиль 0 16 км 8/8 180 м +19.4 +17.8 90 +21 +21 комфорт 999.8
штиль 0 16 км 10/10 180 м +19.4 +17.2 87 +21 +21 комфорт 1011.3 999.5
штиль 0 16 км 5/5 180 м +18.9 +17.2 90 +20 +20 1011.0 999.1
штиль 0 16 км 8/8 180 м +19.4 +17.2 87 +21 +21 комфорт 999.5
З 2 16 км 8/8 180 м +18.9 +17.2 90 +21 +21 комфорт 1010.9 999.1 +18.9 +20.0
штиль 0 16 км 10/10 210 м +18.9 +17.2 90 +20 +20 1011.0 999.1
штиль 0 14 км 10/10 210 м +19.4 +17.2 87 +21 +21 комфорт 1011.6 999.8
З 2 16 км 10/10 240 м +20.0 +17.2 84 +23 +23 комфорт 1012.1 1000.5
нст 2 16 км 8/8 300 м +20.6 +17.2 81 +25 +26 комфорт 1000.5
нст 2 16 км 5/5 300 м +20.6 +17.2 81 +25 +27 комфорт 1000.8
З 2 16 км 5/5 330 м +21.1 +17.2 78 +25 +27 комфорт 1012.5 1000.8
Местоположение метеостанции McClellan-Palomar Airport: широта 33.1300 долгота -117.2758 высота над уровнем моря 100 м.
В архиве по умолчанию представлена погода в Карлсбаде за последние 1-2 суток. Обновление информации о фактической погоде в базе происходит ежечасно! Архивные данные за месяц целиком и за предыдущие месяцы Вы можете получить, выбрав интересующий диапазон дат из раскрывающегося списка и нажав кнопку "Ввод!".
Внимание! Архив погоды МЕТАР в базе сайта по станциям, не включенным в климатический монитор, хранится не более 60 дней. Нет смысла пытаться выбрать более раннюю дату.
*Определитесь, кто Вы:
Внимание! Время в таблицах - местное (без учета летнего времени). Для получения всемирного времени необходимо вычесть поправку, которая равна -8 ч.
Смотрите также архив погоды в соседних городах и на ближайших метеорологических станциях:
Партнеры нашего сайта:      
Пояснения к столбцам:
  • Ветер - указаны скорость ветра в м/с - средняя за 10 мин, порывы в срок и между сроками (в фигурных скобках) и направление, откуда дует ветер: С - северный,
  • СВ - северо-восточный, В - восточный, ЮВ - юго-восточный, Ю - южный, ЮЗ - юго-западный, З - западный, СЗ - северо-западный.
  • Видимость - горизонтальная дальность видимости в метрах или километрах. При видимости от 1 до 10 км при отсутствии осадков обычно наблюдается дымка, при ухудшении видимости до 1 км и менее - туман. В сухую погоду видимость может ухудшаться дымом, пылью или мглою.
  • Явления - указаны атмосферные явления, наблюдавшиеся в срок или в последний час перед сроком; фигурными скобками обозначены явления, наблюдавшиеся между сроками (за 1-3 часа до срока); квадратными скобками обозначены град или гололедные отложения с указанием их диаметра в мм.
  • Облачность - указаны через наклонную черту общая и нижняя облачность в баллах и высота нижней границы облаков в метрах; квадратными скобками обозначены формы облаков: Ci - перистые, Cs - перисто-слоистые, Cc - перисто-кучевые, Ac - высококучевые, As - высокослоистые, Sc - слоисто-кучевые, Ns - слоисто-дождевые, Cu - кучевые, Cb - кучево-дождевые. Подробнее классификацию облаков см. в Атласе облаков (PDF).
  • T - Температура воздуха - температура, измеренная на высоте 2 м над землей.
  • Td - Температура точки росы - температура, при понижении до которой содержащийся в воздухе водяной пар достигнет насыщения.
  • f - Относительная влажность воздуха - влажноcть воздуха, измеренная на высоте 2 м над землей.
  • Te - Эффективная температура - температура, которую ощущает одетый по сезону человек в тени. Характеристика душности погоды. При расчете учитывается влияние влажности воздуха и скорости ветра на теплоощущения человека.
  • Tes - Эффективная температура на солнце - температура, которую ощущает человек, с поправкой на солнечный нагрев. Характеристика знойности погоды. Зависит от высоты солнца над горизонтом, облачности и скорости ветра. Ночью, в пасмурную погоду, а также при ветре 12 м/с и более поправка равна нулю.
  • P - Атмосферное давление - приведенное к уровню моря атмосферное давление.
  • Po - Атмосферное давление - измеренное на уровне метеостанции атмосферное давление.
  • Tmin - Минимальная температура - минимум температуры воздуха на высоте 2 м над землей.
  • Tmax - Максимальная температура - максимум температуры воздуха на высоте 2 м над землей.
  • R - Количество осадков - Количество выпавших осадков за период времени, мм. При наведении курсора мыши на число - период времени, за который выпало указанное количество осадков.
  • R24 - Количество осадков - Количество выпавших осадков за 24 часа, мм.
  • S - Снежный покров - Высота снежного покрова, см. При наведении курсора мыши на число - состояние снежного покрова и степень покрытия местности в баллах.